TimeEDT,TemperatureF,Dew PointF,Humidity,Sea Level PressureIn,VisibilityMPH,Wind Direction,Wind SpeedMPH,Gust SpeedMPH,PrecipitationIn,Events,Conditions,WindDirDegrees,DateUTC
12:05 AM,64.4,60.8,88,29.90,9.0,SSW,12.7,19.6,N/A,,Mostly Cloudy,210,2013-05-23 04:05:00
12:56 AM,64.0,61.0,90,29.90,9.0,SSW,11.5,21.9,N/A,,Overcast,210,2013-05-23 04:56:00
1:56 AM,64.0,61.0,90,29.89,8.0,SSW,11.5,-,N/A,,Overcast,210,2013-05-23 05:56:00
2:56 AM,64.0,62.1,93,29.88,7.0,SW,12.7,-,N/A,,Overcast,220,2013-05-23 06:56:00
3:56 AM,64.9,62.1,90,29.88,8.0,SSW,19.6,26.5,N/A,,Overcast,210,2013-05-23 07:56:00
4:56 AM,66.0,63.0,90,29.89,8.0,SSW,13.8,-,0.00,,Overcast,210,2013-05-23 08:56:00
5:19 AM,64.4,62.6,94,29.88,6.0,SSW,11.5,-,0.01,Rain-Thunderstorm,Light Thunderstorms and Rain,200,2013-05-23 09:19:00
5:37 AM,64.4,62.6,94,29.88,8.0,SSW,13.8,21.9,0.01,Thunderstorm,Overcast,210,2013-05-23 09:37:00
5:56 AM,64.9,63.0,93,29.90,6.0,SSW,16.1,20.7,0.01,Thunderstorm,Overcast,210,2013-05-23 09:56:00
6:03 AM,64.4,62.6,94,29.89,1.5,SSW,10.4,20.7,N/A,Thunderstorm,Overcast,200,2013-05-23 10:03:00
6:40 AM,62.6,60.8,94,29.90,1.0,SSW,11.5,-,0.00,Thunderstorm,Overcast,200,2013-05-23 10:40:00
6:56 AM,63.0,62.1,97,29.91,0.8,SSW,10.4,-,0.00,,Overcast,200,2013-05-23 10:56:00
7:21 AM,62.6,60.8,94,29.91,0.2,SSW,18.4,24.2,0.00,Fog-Rain,Light Rain,200,2013-05-23 11:21:00
7:56 AM,63.0,62.1,97,29.91,0.8,SSW,13.8,21.9,0.00,,Overcast,210,2013-05-23 11:56:00
8:56 AM,64.0,62.1,93,29.92,1.0,SSW,13.8,23.0,N/A,,Overcast,210,2013-05-23 12:56:00
9:56 AM,64.9,63.0,93,29.92,1.5,SSW,13.8,19.6,N/A,,Overcast,210,2013-05-23 13:56:00
10:33 AM,66.2,62.6,88,29.92,2.0,SSW,12.7,21.9,N/A,,Overcast,210,2013-05-23 14:33:00
10:56 AM,66.9,63.0,87,29.93,3.0,SSW,19.6,24.2,N/A,,Overcast,210,2013-05-23 14:56:00
11:56 AM,69.1,64.0,84,29.92,4.0,SSW,13.8,24.2,N/A,,Haze,200,2013-05-23 15:56:00
12:56 PM,69.1,63.0,81,29.90,5.0,South,19.6,28.8,N/A,,Haze,190,2013-05-23 16:56:00
1:56 PM,71.1,64.0,78,29.88,5.0,SSW,17.3,29.9,N/A,,Haze,200,2013-05-23 17:56:00
2:56 PM,68.0,62.1,81,29.88,6.0,South,18.4,28.8,N/A,,Haze,190,2013-05-23 18:56:00
3:56 PM,68.0,62.1,81,29.86,7.0,South,19.6,31.1,N/A,,Overcast,190,2013-05-23 19:56:00
4:56 PM,66.9,62.1,84,29.86,6.0,South,20.7,32.2,N/A,,Haze,190,2013-05-23 20:56:00
5:56 PM,66.0,61.0,84,29.85,9.0,South,18.4,26.5,N/A,,Overcast,190,2013-05-23 21:56:00
6:56 PM,64.9,61.0,87,29.85,6.0,South,12.7,20.7,N/A,,Overcast,190,2013-05-23 22:56:00
7:56 PM,64.0,61.0,90,29.85,8.0,South,13.8,20.7,N/A,,Overcast,170,2013-05-23 23:56:00
8:56 PM,64.0,61.0,90,29.85,7.0,South,15.0,-,N/A,,Overcast,190,2013-05-24 00:56:00
9:56 PM,63.0,61.0,93,29.83,8.0,South,12.7,18.4,0.00,Rain,Light Rain,190,2013-05-24 01:56:00
10:56 PM,63.0,61.0,93,29.81,3.0,South,11.5,18.4,0.05,Rain,Heavy Rain,180,2013-05-24 02:56:00
11:56 PM,63.0,61.0,93,29.78,3.0,South,12.7,21.9,0.17,Rain,Heavy Rain,190,2013-05-24 03:56:00